[[{"header":{"parameterUnit":"m.s-1","parameterCategory":1,"la1":30.2991,"la2":30.254,"lo1":-89.0895,"lo2":-89.0444,"dy":0.0017,"dx":0.0017,"nx":28,"ny":28,"refTime":"2023-08-11T03:00:00:Z","depth":0,"parameterNumber":2,"parameterNumberName":"U-component_of_WINDS"},"data":[0,0,0,0,0,0,0,0,0,0,0,0,0,0,0,0,0,0,0,0,0,0,0,0,0,0,0,0,0,0,0,0,0,0,0,0,0,0,0,0,0,0,0,0,0,0,0,0,0,0,0,0,0,0,0,0,0,0,4.3704,4.3705,0,4.3782,4.3783,4.3783,4.3754,4.3752,4.375,4.3749,4.3831,4.3835,4.3839,0,0,0,0,0,0,0,0,0,0,0,0,0,4.3534,4.3537,4.3704,4.3705,4.3706,4.3782,4.3783,4.3784,4.3754,4.3752,4.375,4.3748,4.383,4.3834,4.3839,0,0,0,0,0,0,0,0,0,0,0,0,0,4.361,4.3539,4.3704,4.37,4.3701,4.3781,4.3783,4.3784,4.3755,4.3752,4.3749,4.3747,4.3828,4.3834,4.384,4.3929,0,0,4.3857,4.386,0,0,0,0,0,0,0,0,4.3605,4.3616,4.37,4.3701,4.3701,4.3755,4.3753,4.3833,4.3755,4.3734,4.3749,4.3746,4.3808,4.3815,4.3836,4.3933,4.3936,4.3858,4.3861,4.3864,4.3865,0,0,0,0,0,0,0,4.36,4.3612,4.3735,4.3701,4.3702,4.3696,4.3704,4.3768,4.3785,4.3736,4.3734,4.3743,4.3808,4.383,4.3838,4.3938,4.3858,4.3863,4.3866,4.3869,4.4115,4.4118,0,0,0,0,0,0,4.3594,4.3608,4.3732,4.3737,4.3646,4.3701,4.371,4.3741,4.3785,4.3789,4.3746,4.3742,4.3822,4.3831,4.384,4.395,4.3864,4.3869,4.3872,4.4112,4.4116,4.4119,0,0,0,0,0,0,4.3591,4.3606,4.3729,4.3672,4.3687,4.3707,4.3742,4.3744,4.3766,4.3792,4.3795,4.3765,4.382,4.3832,4.3908,4.3952,4.3872,4.3877,4.4108,4.4113,4.4117,4.4169,0,0,0,0,0,0,4.3586,4.3604,4.3637,4.3673,4.3691,4.3794,4.3745,4.3747,4.3776,4.3771,4.3811,4.3815,4.3819,4.3899,4.3913,4.3959,4.3881,4.4104,4.411,4.4116,4.4163,4.4175,4.4184,0,0,0,0,0,4.358,4.3649,4.3639,4.3654,4.3732,4.3796,4.3807,4.3809,4.3779,4.3814,4.3831,4.3814,4.3945,4.3907,4.3923,4.3971,4.4102,4.4109,4.4115,4.4158,4.4172,4.4184,0,0,0,0,0,0,4.3618,4.3653,4.3643,4.3725,4.3758,4.3791,4.3834,4.3823,4.3866,4.386,4.3862,4.3871,4.3949,4.3967,4.3925,4.4061,4.4019,4.4029,4.4047,4.406,4.407,4.4065,4.3886,0,0,0,0,0,4.3636,4.3685,4.3713,4.3783,4.38,4.3815,4.3843,4.3842,4.3876,4.389,4.3912,4.3947,4.3997,4.4029,4.4076,4.4166,4.4175,4.4207,4.4217,4.4226,4.4235,4.4287,4.4302,4.4142,4.4142,4.4141,0,0,4.3674,4.3699,4.373,4.3791,4.3817,4.3868,4.3826,4.3882,4.3921,4.3899,4.3971,4.3989,4.4029,4.4112,4.415,4.413,4.4281,4.4235,4.4241,4.4246,4.4295,4.431,4.4324,4.4146,4.4145,4.4145,0,0,4.377,4.3793,4.3855,4.3881,4.392,4.3929,4.3944,4.398,4.3991,4.4064,4.4049,4.4096,4.418,4.4209,4.4235,4.4345,4.4331,4.436,4.4415,4.4466,4.4478,4.4489,4.453,4.4545,4.4369,4.4369,4.4369,0,4.3812,4.3888,4.3888,4.3946,4.3974,4.3956,4.402,4.4046,4.4099,4.412,4.4096,4.4203,4.4228,4.4319,4.4346,4.4367,4.4386,4.4355,4.4476,4.4487,4.4498,4.4537,4.4552,4.4372,4.4372,4.4371,4.4371,0,4.3939,4.3992,4.4038,4.4089,4.4123,4.4183,4.4194,4.4228,4.4225,4.4238,4.4314,4.4344,4.4397,4.4419,4.4416,4.4511,4.4497,4.4475,4.4433,4.4517,4.4554,4.4568,4.4377,4.4376,4.4375,4.4374,0,0,4.4061,4.4112,4.4129,4.4153,4.4195,4.4237,4.4298,4.435,4.438,4.4417,4.447,4.4543,4.4523,4.4553,4.4553,4.4597,4.4684,4.457,4.4571,4.4591,4.4794,4.4811,4.4828,4.4676,4.4678,4.4681,4.4791,0,4.4161,4.4267,4.4269,4.4367,4.4417,4.4402,4.4455,4.4488,4.4502,4.4548,4.4564,4.4616,4.4585,4.4603,4.4646,4.4665,4.4725,4.4656,4.4726,4.4729,4.4718,4.4847,4.4866,4.4968,4.4805,4.4808,4.4809,0,4.4292,4.4334,4.4436,4.4473,4.4494,4.4542,4.4591,4.4634,4.4672,4.468,4.4714,4.4708,4.4773,4.4728,4.4817,4.4771,4.48,4.4814,4.4818,4.4825,4.4775,4.486,4.5001,4.5017,4.4832,4.483,4.4828,0,4.4373,4.4454,4.4527,4.4548,4.4592,4.4627,4.4647,4.4682,4.4714,4.4757,4.4778,4.4828,4.4856,4.4896,4.4905,4.4872,4.4996,4.4951,4.5006,4.5006,4.5034,4.5032,4.5182,4.505,4.5049,4.5049,4.5049,0,4.4486,4.4549,4.4564,4.4609,4.4681,4.4684,4.4756,4.4774,4.4805,4.4855,4.4844,4.4891,4.49,4.4949,4.4957,4.5031,4.5044,4.5053,4.5054,4.5055,4.5054,4.5074,4.5068,4.5053,4.5052,4.5052,4.5051,0,4.4589,4.4601,4.4679,4.4715,4.4726,4.4777,4.4809,4.4853,4.4866,4.4929,4.4944,4.4965,4.5023,4.5035,4.5104,4.5109,4.5199,4.5192,4.5186,4.5186,4.524,4.5235,4.541,4.5434,4.5284,4.5286,4.5287,0,4.466,4.4709,4.4751,4.4783,4.4805,4.4856,4.4889,4.4895,4.4929,4.4977,4.5016,4.5072,4.5118,4.5211,4.5234,4.5287,4.5283,4.5341,4.5291,4.529,4.5286,4.5284,4.529,4.535,4.5352,4.5353,4.5354,0,4.4787,4.4791,4.4838,4.4888,4.4927,4.4966,4.5004,4.5031,4.5043,4.5082,4.5141,4.5176,4.5247,4.5304,4.5357,4.538,4.5371,4.537,4.5386,4.5387,4.5382,4.5387,4.5213,4.5366,4.5365,4.5364,4.5363,4.5363,4.4878,4.4922,4.4958,4.5012,4.5041,4.5076,4.512,4.5139,4.5188,4.5245,4.5246,4.531,4.5349,4.542,4.5446,4.5498,4.548,4.5502,4.5509,4.5514,4.552,4.5372,4.5507,4.5507,4.5507,4.5507,4.5506,0,4.5007,4.503,4.5078,4.5132,4.5174,4.516,4.5201,4.5238,4.5295,4.5331,4.5377,4.5445,4.5501,4.5528,4.5584,4.5621,4.5618,4.5635,4.5633,4.5639,4.5532,4.5513,4.5637,4.5637,4.5637,4.5637,4.5637,4.5637,4.5078,4.5152,4.5161,4.525,4.5272,4.5335,4.536,4.5394,4.5424,4.55,4.5546,4.5563,4.5597,4.5655,4.5707,4.5713,4.5735,4.5756,4.576,4.566,4.5647,4.5634,4.5617,4.576,4.576,4.5864,4.5865,4.5866]},{"header":{"parameterUnit":"m.s-1","parameterCategory":1,"la1":30.2991,"la2":30.254,"lo1":-89.0895,"lo2":-89.0444,"dy":0.0017,"dx":0.0017,"nx":28,"ny":28,"refTime":"2023-08-11T03:00:00:Z","depth":0,"parameterNumber":3,"parameterNumberName":"V-component_of_WINDS"},"data":[0,0,0,0,0,0,0,0,0,0,0,0,0,0,0,0,0,0,0,0,0,0,0,0,0,0,0,0,0,0,0,0,0,0,0,0,0,0,0,0,0,0,0,0,0,0,0,0,0,0,0,0,0,0,0,0,0,0,-0.2687,-0.2687,0,-0.2688,-0.2688,-0.2688,-0.2683,-0.2683,-0.2683,-0.2683,-0.2686,-0.2686,-0.2686,0,0,0,0,0,0,0,0,0,0,0,0,0,-0.2684,-0.2684,-0.2687,-0.2687,-0.2687,-0.2688,-0.2688,-0.2688,-0.2683,-0.2683,-0.2683,-0.2683,-0.2686,-0.2686,-0.2686,0,0,0,0,0,0,0,0,0,0,0,0,0,-0.2685,-0.2684,-0.2687,-0.2685,-0.2685,-0.2688,-0.2688,-0.2688,-0.2684,-0.2683,-0.2683,-0.2683,-0.2685,-0.2686,-0.2686,-0.2692,0,0,-0.2687,-0.2687,0,0,0,0,0,0,0,0,-0.2685,-0.2685,-0.2685,-0.2685,-0.2685,-0.2685,-0.2688,-0.269,-0.2684,-0.2684,-0.2683,-0.2683,-0.2686,-0.2686,-0.2687,-0.2692,-0.2692,-0.2687,-0.2687,-0.2687,-0.2687,0,0,0,0,0,0,0,-0.2685,-0.2685,-0.2688,-0.2685,-0.2685,-0.2685,-0.2685,-0.2688,-0.2686,-0.2684,-0.2684,-0.2684,-0.2686,-0.2687,-0.2687,-0.2692,-0.2687,-0.2687,-0.2687,-0.2688,-0.2705,-0.2705,0,0,0,0,0,0,-0.2685,-0.2685,-0.2688,-0.2688,-0.2684,-0.2685,-0.2685,-0.2685,-0.2686,-0.2686,-0.2684,-0.2684,-0.2686,-0.2686,-0.2687,-0.2695,-0.2687,-0.2688,-0.2688,-0.2705,-0.2705,-0.2706,0,0,0,0,0,0,-0.2685,-0.2685,-0.2688,-0.2686,-0.2687,-0.2685,-0.2686,-0.2686,-0.2686,-0.2686,-0.2686,-0.2685,-0.2686,-0.2686,-0.2691,-0.2695,-0.2688,-0.2688,-0.2705,-0.2705,-0.2705,-0.2711,0,0,0,0,0,0,-0.2685,-0.2685,-0.2687,-0.2686,-0.2687,-0.2691,-0.2686,-0.2686,-0.2687,-0.2686,-0.2687,-0.2687,-0.2686,-0.2691,-0.2692,-0.2695,-0.2688,-0.2704,-0.2705,-0.2705,-0.2711,-0.2712,-0.2713,0,0,0,0,0,-0.2685,-0.2688,-0.2687,-0.2687,-0.2688,-0.2691,-0.2691,-0.269,-0.2687,-0.2689,-0.2689,-0.2687,-0.2695,-0.2691,-0.2692,-0.2696,-0.2704,-0.2705,-0.2705,-0.271,-0.2712,-0.2713,0,0,0,0,0,0,-0.2689,-0.2688,-0.2686,-0.269,-0.2691,-0.269,-0.2693,-0.2691,-0.2693,-0.2692,-0.2691,-0.2691,-0.2696,-0.2697,-0.2693,-0.2703,-0.2699,-0.27,-0.2703,-0.2704,-0.2705,-0.2705,-0.2688,0,0,0,0,0,-0.269,-0.2692,-0.2691,-0.2694,-0.2695,-0.2694,-0.2695,-0.2694,-0.2695,-0.2695,-0.2695,-0.2697,-0.27,-0.2702,-0.2705,-0.2711,-0.2712,-0.2714,-0.2715,-0.2716,-0.2717,-0.2722,-0.2724,-0.2708,-0.2708,-0.2708,0,0,-0.2693,-0.2693,-0.2694,-0.2695,-0.2696,-0.2698,-0.2694,-0.2697,-0.2699,-0.2696,-0.27,-0.2701,-0.2703,-0.2709,-0.2711,-0.2709,-0.2722,-0.2717,-0.2718,-0.2718,-0.2723,-0.2725,-0.2726,-0.2708,-0.2708,-0.2708,0,0,-0.2699,-0.2699,-0.2702,-0.2703,-0.2704,-0.2703,-0.2704,-0.2705,-0.2705,-0.2709,-0.2707,-0.2711,-0.2716,-0.2718,-0.2719,-0.2729,-0.2727,-0.273,-0.2735,-0.274,-0.2741,-0.2742,-0.2747,-0.2748,-0.273,-0.273,-0.273,0,-0.2703,-0.2706,-0.2704,-0.2707,-0.2708,-0.2706,-0.271,-0.2711,-0.2713,-0.2714,-0.2712,-0.2719,-0.272,-0.2727,-0.273,-0.2731,-0.2733,-0.2729,-0.2741,-0.2742,-0.2743,-0.2748,-0.2749,-0.2731,-0.2731,-0.2731,-0.2731,0,-0.271,-0.2713,-0.2716,-0.2717,-0.2719,-0.2723,-0.2723,-0.2725,-0.2724,-0.2724,-0.273,-0.2732,-0.2735,-0.2737,-0.2736,-0.2745,-0.2744,-0.2741,-0.2737,-0.2745,-0.2749,-0.2751,-0.2731,-0.2731,-0.2731,-0.2731,0,0,-0.2718,-0.272,-0.2721,-0.2723,-0.2725,-0.2727,-0.2731,-0.2735,-0.2737,-0.2739,-0.2744,-0.2749,-0.2747,-0.2749,-0.2749,-0.2753,-0.2762,-0.2751,-0.2751,-0.2753,-0.2774,-0.2776,-0.2777,-0.2761,-0.2762,-0.2762,-0.2774,0,-0.2725,-0.2731,-0.2731,-0.2738,-0.2741,-0.2739,-0.2743,-0.2746,-0.2747,-0.275,-0.2752,-0.2756,-0.2753,-0.2754,-0.2759,-0.276,-0.2766,-0.2759,-0.2767,-0.2767,-0.2766,-0.2779,-0.2781,-0.2792,-0.2775,-0.2776,-0.2776,0,-0.2733,-0.2736,-0.2743,-0.2746,-0.2747,-0.275,-0.2755,-0.2758,-0.2761,-0.2762,-0.2765,-0.2764,-0.277,-0.2766,-0.2775,-0.2771,-0.2774,-0.2776,-0.2776,-0.2777,-0.2772,-0.2781,-0.2795,-0.2797,-0.2778,-0.2778,-0.2778,0,-0.2739,-0.2744,-0.275,-0.2751,-0.2754,-0.2757,-0.2759,-0.2762,-0.2765,-0.2769,-0.2771,-0.2776,-0.2778,-0.2783,-0.2784,-0.2781,-0.2794,-0.2789,-0.2796,-0.2796,-0.2798,-0.2798,-0.2814,-0.28,-0.28,-0.28,-0.2799,0,-0.2746,-0.2751,-0.2752,-0.2756,-0.2762,-0.2762,-0.2768,-0.277,-0.2773,-0.2777,-0.2777,-0.2781,-0.2783,-0.2788,-0.2789,-0.2798,-0.2799,-0.28,-0.2801,-0.28,-0.28,-0.2803,-0.2802,-0.28,-0.28,-0.28,-0.28,0,-0.2754,-0.2754,-0.276,-0.2764,-0.2765,-0.2769,-0.2772,-0.2776,-0.2778,-0.2784,-0.2785,-0.2788,-0.2795,-0.2797,-0.2804,-0.2805,-0.2815,-0.2815,-0.2814,-0.2814,-0.282,-0.282,-0.2838,-0.2841,-0.2825,-0.2825,-0.2825,0,-0.2758,-0.2762,-0.2766,-0.2769,-0.2771,-0.2775,-0.2778,-0.278,-0.2783,-0.2788,-0.2792,-0.2799,-0.2804,-0.2814,-0.2818,-0.2824,-0.2824,-0.283,-0.2825,-0.2826,-0.2825,-0.2825,-0.2826,-0.2831,-0.2831,-0.2831,-0.2832,0,-0.2767,-0.2768,-0.2772,-0.2777,-0.2781,-0.2784,-0.2788,-0.2791,-0.2793,-0.2797,-0.2804,-0.2808,-0.2817,-0.2824,-0.2831,-0.2834,-0.2834,-0.2833,-0.2835,-0.2835,-0.2835,-0.2836,-0.2817,-0.2833,-0.2833,-0.2833,-0.2832,-0.2832,-0.2773,-0.2777,-0.2781,-0.2786,-0.279,-0.2794,-0.2798,-0.2801,-0.2806,-0.2813,-0.2814,-0.2821,-0.2827,-0.2836,-0.284,-0.2847,-0.2845,-0.2847,-0.2848,-0.2849,-0.285,-0.2834,-0.2848,-0.2848,-0.2848,-0.2848,-0.2848,0,-0.2783,-0.2786,-0.279,-0.2796,-0.2801,-0.28,-0.2805,-0.281,-0.2816,-0.2821,-0.2826,-0.2835,-0.2842,-0.2847,-0.2855,-0.286,-0.286,-0.2862,-0.2861,-0.2862,-0.285,-0.2848,-0.2861,-0.2861,-0.2861,-0.2861,-0.2861,-0.2861,-0.2788,-0.2795,-0.2797,-0.2806,-0.2809,-0.2816,-0.2819,-0.2824,-0.2828,-0.2837,-0.2844,-0.2847,-0.2852,-0.2861,-0.2868,-0.2869,-0.2872,-0.2874,-0.2876,-0.2864,-0.2863,-0.2862,-0.286,-0.2875,-0.2875,-0.2887,-0.2888,-0.2888]}]]